Location: Baggettsville
(36.4767°N, 86.7303°W)
Time: 10:09:01
(UTC+00:00)

ISS - Pass Details

Date: 06 October 2021
Orbit: 417 x 423 km, 51.6° (Epoch: 15 October)

Event Time Altitude Azimuth Distance (km) Brightness Sun altitude
Rises 00:31:53 0° 312° (NW) 2,363 1.0 -14.4°
Reaches altitude 10° 00:33:59 10° 314° (NW) 1,498 -0.2 -14.9°
Maximum altitude 00:37:20 77° 40° (NE) 432 -3.9 -15.5°
Enters shadow 00:38:37 35° 121° (ESE) 697 -3.1 -15.8°
